Location: Endfield
(51.6667°N, 0.0667°W)
Time: 20:21:18
(UTC+00:00)

Cosmos 1328 Rocket - Pass Details

Date: 19 May 2024
Orbit: 597 x 623 km, 82.5° (Epoch: 14 June)

Event Time Altitude Azimuth Distance (km) Brightness Sun altitude
Exits shadow 23:33:14 36° 201° (SSW) 977 4.1 -18.1°
Maximum altitude 23:34:58 77° 281° (W) 632 3.5 -18.1°
Drops below altitude 10° 23:39:19 10° 8° (N) 1,967 7.3 -18.2°
Sets 23:41:33 0° 10° (N) 2,871 8.5 -18.2°
